Index of /20260412/WXO-DD/model_gdps/15km/12/207
Name Last modified Size Description
Parent Directory -
20260412T12Z_MSC_GDPS_AirTemp_AGL-120m_LatLon0.15_PT207H.grib2 2026-04-12 16:55 909K
20260412T12Z_MSC_GDPS_AirTemp_AGL-2m_LatLon0.15_PT207H.grib2 2026-04-12 16:55 1.0M
20260412T12Z_MSC_GDPS_AirTemp_AGL-40m_LatLon0.15_PT207H.grib2 2026-04-12 16:55 929K
20260412T12Z_MSC_GDPS_AirTemp_AGL-80m_LatLon0.15_PT207H.grib2 2026-04-12 16:55 918K
20260412T12Z_MSC_GDPS_AirTemp_IsbL-0001_LatLon0.15_PT207H.grib2 2026-04-12 16:55 645K
20260412T12Z_MSC_GDPS_AirTemp_IsbL-0005_LatLon0.15_PT207H.grib2 2026-04-12 16:55 679K
20260412T12Z_MSC_GDPS_AirTemp_IsbL-0500_LatLon0.15_PT207H.grib2 2026-04-12 16:55 1.0M
20260412T12Z_MSC_GDPS_AirTemp_IsbL-0700_LatLon0.15_PT207H.grib2 2026-04-12 16:55 954K
20260412T12Z_MSC_GDPS_AirTemp_IsbL-0850_LatLon0.15_PT207H.grib2 2026-04-12 16:55 1.1M
20260412T12Z_MSC_GDPS_AirTemp_IsbL-0925_LatLon0.15_PT207H.grib2 2026-04-12 16:55 1.1M
20260412T12Z_MSC_GDPS_AirTemp_IsbL-1000_LatLon0.15_PT207H.grib2 2026-04-12 16:55 1.1M
20260412T12Z_MSC_GDPS_Albedo_Sfc_LatLon0.15_PT207H.grib2 2026-04-12 16:55 246K
20260412T12Z_MSC_GDPS_ConvectivePrecip-Accum_Sfc_LatLon0.15_PT207H.grib2 2026-04-12 16:55 3.9M
20260412T12Z_MSC_GDPS_DewPointDepression_AGL-2m_LatLon0.15_PT207H.grib2 2026-04-12 16:55 751K
20260412T12Z_MSC_GDPS_DewPointDepression_IsbL-0500_LatLon0.15_PT207H.grib2 2026-04-12 16:55 1.0M
20260412T12Z_MSC_GDPS_DewPointDepression_IsbL-0700_LatLon0.15_PT207H.grib2 2026-04-12 16:55 1.1M
20260412T12Z_MSC_GDPS_DewPointDepression_IsbL-0850_LatLon0.15_PT207H.grib2 2026-04-12 16:55 1.2M
20260412T12Z_MSC_GDPS_DewPointDepression_IsbL-0925_LatLon0.15_PT207H.grib2 2026-04-12 16:55 1.0M
20260412T12Z_MSC_GDPS_DewPointDepression_IsbL-1000_LatLon0.15_PT207H.grib2 2026-04-12 16:55 973K
20260412T12Z_MSC_GDPS_DewPoint_AGL-2m_LatLon0.15_PT207H.grib2 2026-04-12 16:55 610K
20260412T12Z_MSC_GDPS_DownwardLongwaveRadiationFlux-Accum_Sfc_LatLon0.15_PT207H.grib2 2026-04-12 16:55 717K
20260412T12Z_MSC_GDPS_DownwardShortwaveRadiationFlux-Accum_Sfc_LatLon0.15_PT207H.grib2 2026-04-12 16:55 888K
20260412T12Z_MSC_GDPS_FreezingRain-Accum_Sfc_LatLon0.15_PT207H.grib2 2026-04-12 16:55 360K
20260412T12Z_MSC_GDPS_GeopotentialHeight_IsbL-0001_LatLon0.15_PT207H.grib2 2026-04-12 16:55 395K
20260412T12Z_MSC_GDPS_GeopotentialHeight_IsbL-0005_LatLon0.15_PT207H.grib2 2026-04-12 16:55 499K
20260412T12Z_MSC_GDPS_GeopotentialHeight_IsbL-0500_LatLon0.15_PT207H.grib2 2026-04-12 16:55 530K
20260412T12Z_MSC_GDPS_GeopotentialHeight_IsbL-0700_LatLon0.15_PT207H.grib2 2026-04-12 16:55 682K
20260412T12Z_MSC_GDPS_GeopotentialHeight_IsbL-0850_LatLon0.15_PT207H.grib2 2026-04-12 16:55 704K
20260412T12Z_MSC_GDPS_GeopotentialHeight_IsbL-0925_LatLon0.15_PT207H.grib2 2026-04-12 16:55 729K
20260412T12Z_MSC_GDPS_GeopotentialHeight_IsbL-1000_LatLon0.15_PT207H.grib2 2026-04-12 16:55 782K
20260412T12Z_MSC_GDPS_IcePellets-Accum_Sfc_LatLon0.15_PT207H.grib2 2026-04-12 16:55 247K
20260412T12Z_MSC_GDPS_LatentHeatNetFlux_Sfc_LatLon0.15_PT207H.grib2 2026-04-12 16:55 664K
20260412T12Z_MSC_GDPS_O3MixingRatio_LatLon0.15_PT207H.grib2 2026-04-12 17:07 2.3M
20260412T12Z_MSC_GDPS_O3_EAtm_LatLon0.15_PT207H.grib2 2026-04-12 17:07 2.4M
20260412T12Z_MSC_GDPS_PlanetaryBoundaryLayerHeight_Sfc_LatLon0.15_PT207H.grib2 2026-04-12 16:55 2.4M
20260412T12Z_MSC_GDPS_Precip-Accum_Sfc_LatLon0.15_PT207H.grib2 2026-04-12 16:55 5.0M
20260412T12Z_MSC_GDPS_PrecipRate_Sfc_LatLon0.15_PT207H.grib2 2026-04-12 16:55 2.9M
20260412T12Z_MSC_GDPS_Pressure_MSL_LatLon0.15_PT207H.grib2 2026-04-12 16:55 718K
20260412T12Z_MSC_GDPS_Pressure_Sfc_LatLon0.15_PT207H.grib2 2026-04-12 16:55 1.1M
20260412T12Z_MSC_GDPS_RadiativeTemp_Sfc_LatLon0.15_PT207H.grib2 2026-04-12 16:55 669K
20260412T12Z_MSC_GDPS_Rain-Accum_Sfc_LatLon0.15_PT207H.grib2 2026-04-12 16:55 4.1M
20260412T12Z_MSC_GDPS_RelativeHumidity_AGL-2m_LatLon0.15_PT207H.grib2 2026-04-12 16:55 1.0M
20260412T12Z_MSC_GDPS_Runoff-Accum_Sfc_LatLon0.15_PT207H.grib2 2026-04-12 16:55 111K
20260412T12Z_MSC_GDPS_SensibleHeatNetFlux_Sfc_LatLon0.15_PT207H.grib2 2026-04-12 16:55 448K
20260412T12Z_MSC_GDPS_Snow-Accum_Sfc_LatLon0.15_PT207H.grib2 2026-04-12 16:55 1.9M
20260412T12Z_MSC_GDPS_SnowDepth_Sfc_LatLon0.15_PT207H.grib2 2026-04-12 16:55 1.8M
20260412T12Z_MSC_GDPS_SoilTemp_DBS-0to10cm_LatLon0.15_PT207H.grib2 2026-04-12 16:55 511K
20260412T12Z_MSC_GDPS_SoilTemp_Sfc_LatLon0.15_PT207H.grib2 2026-04-12 16:55 579K
20260412T12Z_MSC_GDPS_SoilVolumetricWaterContent_DBS-0to10cm_LatLon0.15_PT207H.grib2 2026-04-12 16:55 554K
20260412T12Z_MSC_GDPS_SoilVolumetricWaterContent_DBS-0to1cm_LatLon0.15_PT207H.grib2 2026-04-12 16:55 651K
20260412T12Z_MSC_GDPS_SpecificHumidity_AGL-120m_LatLon0.15_PT207H.grib2 2026-04-12 16:55 1.1M
20260412T12Z_MSC_GDPS_SpecificHumidity_AGL-2m_LatLon0.15_PT207H.grib2 2026-04-12 16:55 1.2M
20260412T12Z_MSC_GDPS_SpecificHumidity_AGL-40m_LatLon0.15_PT207H.grib2 2026-04-12 16:55 1.1M
20260412T12Z_MSC_GDPS_SpecificHumidity_AGL-80m_LatLon0.15_PT207H.grib2 2026-04-12 16:55 1.1M
20260412T12Z_MSC_GDPS_SpecificHumidity_IsbL-0001_LatLon0.15_PT207H.grib2 2026-04-12 16:55 1.0M
20260412T12Z_MSC_GDPS_SpecificHumidity_IsbL-0005_LatLon0.15_PT207H.grib2 2026-04-12 16:55 1.0M
20260412T12Z_MSC_GDPS_SpecificHumidity_IsbL-0500_LatLon0.15_PT207H.grib2 2026-04-12 16:55 1.4M
20260412T12Z_MSC_GDPS_SpecificHumidity_IsbL-0700_LatLon0.15_PT207H.grib2 2026-04-12 16:55 1.6M
20260412T12Z_MSC_GDPS_SpecificHumidity_IsbL-0850_LatLon0.15_PT207H.grib2 2026-04-12 16:55 1.9M
20260412T12Z_MSC_GDPS_SpecificHumidity_IsbL-0925_LatLon0.15_PT207H.grib2 2026-04-12 16:55 1.9M
20260412T12Z_MSC_GDPS_SpecificHumidity_IsbL-1000_LatLon0.15_PT207H.grib2 2026-04-12 16:55 1.5M
20260412T12Z_MSC_GDPS_SpecificHumidity_Sfc_LatLon0.15_PT207H.grib2 2026-04-12 16:55 659K
20260412T12Z_MSC_GDPS_Thickness_IsbL-0850to0700_LatLon0.15_PT207H.grib2 2026-04-12 16:55 469K
20260412T12Z_MSC_GDPS_Thickness_IsbL-1000to0500_LatLon0.15_PT207H.grib2 2026-04-12 16:55 377K
20260412T12Z_MSC_GDPS_Thickness_IsbL-1000to0850_LatLon0.15_PT207H.grib2 2026-04-12 16:55 490K
20260412T12Z_MSC_GDPS_TotalCloudCover_Sfc_LatLon0.15_PT207H.grib2 2026-04-12 16:55 818K
20260412T12Z_MSC_GDPS_UVIndex-ClearSky_Sfc_LatLon0.15_PT207H.grib2 2026-04-12 17:07 1.0M
20260412T12Z_MSC_GDPS_UVIndex_Sfc_LatLon0.15_PT207H.grib2 2026-04-12 17:07 1.4M
20260412T12Z_MSC_GDPS_UpwardLongwaveRadiationFlux_NTAtm_LatLon0.15_PT207H.grib2 2026-04-12 16:55 1.0M
20260412T12Z_MSC_GDPS_VerticalVelocity_IsbL-0500_LatLon0.15_PT207H.grib2 2026-04-12 16:55 1.0M
20260412T12Z_MSC_GDPS_VerticalVelocity_IsbL-0700_LatLon0.15_PT207H.grib2 2026-04-12 16:55 1.1M
20260412T12Z_MSC_GDPS_VerticalVelocity_IsbL-0850_LatLon0.15_PT207H.grib2 2026-04-12 16:55 1.6M
20260412T12Z_MSC_GDPS_WindDir_AGL-10m_LatLon0.15_PT207H.grib2 2026-04-12 16:55 1.4M
20260412T12Z_MSC_GDPS_WindDir_AGL-120m_LatLon0.15_PT207H.grib2 2026-04-12 16:55 1.4M
20260412T12Z_MSC_GDPS_WindDir_AGL-40m_LatLon0.15_PT207H.grib2 2026-04-12 16:55 1.4M
20260412T12Z_MSC_GDPS_WindDir_AGL-80m_LatLon0.15_PT207H.grib2 2026-04-12 16:55 1.4M
20260412T12Z_MSC_GDPS_WindDir_IsbL-0001_LatLon0.15_PT207H.grib2 2026-04-12 16:55 647K
20260412T12Z_MSC_GDPS_WindDir_IsbL-0005_LatLon0.15_PT207H.grib2 2026-04-12 16:55 799K
20260412T12Z_MSC_GDPS_WindDir_IsbL-0500_LatLon0.15_PT207H.grib2 2026-04-12 16:55 1.3M
20260412T12Z_MSC_GDPS_WindDir_IsbL-0700_LatLon0.15_PT207H.grib2 2026-04-12 16:55 1.6M
20260412T12Z_MSC_GDPS_WindDir_IsbL-0850_LatLon0.15_PT207H.grib2 2026-04-12 16:55 2.0M
20260412T12Z_MSC_GDPS_WindDir_IsbL-0925_LatLon0.15_PT207H.grib2 2026-04-12 16:55 2.0M
20260412T12Z_MSC_GDPS_WindDir_IsbL-1000_LatLon0.15_PT207H.grib2 2026-04-12 16:55 2.1M
20260412T12Z_MSC_GDPS_WindGust-Max_AGL-10m_LatLon0.15_PT207H.grib2 2026-04-12 16:55 1.8M
20260412T12Z_MSC_GDPS_WindGust-Min_AGL-10m_LatLon0.15_PT207H.grib2 2026-04-12 16:55 2.2M
20260412T12Z_MSC_GDPS_WindGust_AGL-10m_LatLon0.15_PT207H.grib2 2026-04-12 16:55 2.1M
20260412T12Z_MSC_GDPS_WindSpeed_AGL-10m_LatLon0.15_PT207H.grib2 2026-04-12 16:55 1.1M
20260412T12Z_MSC_GDPS_WindSpeed_AGL-120m_LatLon0.15_PT207H.grib2 2026-04-12 16:55 1.3M
20260412T12Z_MSC_GDPS_WindSpeed_AGL-40m_LatLon0.15_PT207H.grib2 2026-04-12 16:55 1.2M
20260412T12Z_MSC_GDPS_WindSpeed_AGL-80m_LatLon0.15_PT207H.grib2 2026-04-12 16:55 1.2M
20260412T12Z_MSC_GDPS_WindSpeed_IsbL-0001_LatLon0.15_PT207H.grib2 2026-04-12 16:55 634K
20260412T12Z_MSC_GDPS_WindSpeed_IsbL-0005_LatLon0.15_PT207H.grib2 2026-04-12 16:55 602K
20260412T12Z_MSC_GDPS_WindSpeed_IsbL-0500_LatLon0.15_PT207H.grib2 2026-04-12 16:55 1.1M
20260412T12Z_MSC_GDPS_WindSpeed_IsbL-0700_LatLon0.15_PT207H.grib2 2026-04-12 16:55 1.2M
20260412T12Z_MSC_GDPS_WindSpeed_IsbL-0850_LatLon0.15_PT207H.grib2 2026-04-12 16:55 1.4M
20260412T12Z_MSC_GDPS_WindSpeed_IsbL-0925_LatLon0.15_PT207H.grib2 2026-04-12 16:55 1.8M
20260412T12Z_MSC_GDPS_WindSpeed_IsbL-1000_LatLon0.15_PT207H.grib2 2026-04-12 16:55 1.9M
20260412T12Z_MSC_GDPS_WindU_AGL-10m_LatLon0.15_PT207H.grib2 2026-04-12 16:55 1.3M
20260412T12Z_MSC_GDPS_WindU_AGL-120m_LatLon0.15_PT207H.grib2 2026-04-12 16:55 1.0M
20260412T12Z_MSC_GDPS_WindU_AGL-40m_LatLon0.15_PT207H.grib2 2026-04-12 16:55 970K
20260412T12Z_MSC_GDPS_WindU_AGL-80m_LatLon0.15_PT207H.grib2 2026-04-12 16:55 1.0M
20260412T12Z_MSC_GDPS_WindU_IsbL-0001_LatLon0.15_PT207H.grib2 2026-04-12 16:55 635K
20260412T12Z_MSC_GDPS_WindU_IsbL-0005_LatLon0.15_PT207H.grib2 2026-04-12 16:55 679K
20260412T12Z_MSC_GDPS_WindU_IsbL-0500_LatLon0.15_PT207H.grib2 2026-04-12 16:55 1.1M
20260412T12Z_MSC_GDPS_WindU_IsbL-0700_LatLon0.15_PT207H.grib2 2026-04-12 16:55 1.2M
20260412T12Z_MSC_GDPS_WindU_IsbL-0850_LatLon0.15_PT207H.grib2 2026-04-12 16:55 1.4M
20260412T12Z_MSC_GDPS_WindU_IsbL-0925_LatLon0.15_PT207H.grib2 2026-04-12 16:55 1.5M
20260412T12Z_MSC_GDPS_WindU_IsbL-1000_LatLon0.15_PT207H.grib2 2026-04-12 16:55 1.4M
20260412T12Z_MSC_GDPS_WindV_AGL-10m_LatLon0.15_PT207H.grib2 2026-04-12 16:55 1.3M
20260412T12Z_MSC_GDPS_WindV_AGL-120m_LatLon0.15_PT207H.grib2 2026-04-12 16:55 1.0M
20260412T12Z_MSC_GDPS_WindV_AGL-40m_LatLon0.15_PT207H.grib2 2026-04-12 16:55 968K
20260412T12Z_MSC_GDPS_WindV_AGL-80m_LatLon0.15_PT207H.grib2 2026-04-12 16:55 1.0M
20260412T12Z_MSC_GDPS_WindV_IsbL-0001_LatLon0.15_PT207H.grib2 2026-04-12 16:55 691K
20260412T12Z_MSC_GDPS_WindV_IsbL-0005_LatLon0.15_PT207H.grib2 2026-04-12 16:55 769K
20260412T12Z_MSC_GDPS_WindV_IsbL-0500_LatLon0.15_PT207H.grib2 2026-04-12 16:55 879K
20260412T12Z_MSC_GDPS_WindV_IsbL-0700_LatLon0.15_PT207H.grib2 2026-04-12 16:55 1.2M
20260412T12Z_MSC_GDPS_WindV_IsbL-0850_LatLon0.15_PT207H.grib2 2026-04-12 16:55 1.4M
20260412T12Z_MSC_GDPS_WindV_IsbL-0925_LatLon0.15_PT207H.grib2 2026-04-12 16:55 1.5M
20260412T12Z_MSC_GDPS_WindV_IsbL-1000_LatLon0.15_PT207H.grib2 2026-04-12 16:55 1.4M